Regional Weather Roundup
Issued by NWS Green Bay, WI

Home | Current Version | Previous Version | Graphics & Text | Print | Product List | Glossary Off
Versions: 1 2 3 4 5 6 7 8 9 10 11 12 13 14 15 16 17 18 19 20 21 22 23 24 25 26 27 28 29 30 31 32 33 34 35 36 37 38 39 40 41 42 43 44 45 46 47 48 49 50

000
ASUS43 KGRB 161859
RWRGRB

NORTH-CENTRAL AND NORTHEAST WISCONSIN REGIONAL WEATHER ROUNDUP
NATIONAL WEATHER SERVICE GREEN BAY WI
200 PM CDT WED APR 16 2014

WIZ005-009-010>012-018-019-162000-
NORTH CENTRAL WISCONSIN

CITY           SKY/WX    TMP DP  RH WIND       PRES   REMARKS
IRONWOOD       CLOUDY    27  21  80 E12       30.12F VSB 1/2
MANITOWISH WTR NOT AVBL
ARBOR VITAE    NOT AVBL
EAGLE RIVER    NOT AVBL
LAND O LAKES   NOT AVBL
RHINELANDER    LGT SNOW  28  24  85 E21G28    30.11F FOG
PHILLIPS       NOT AVBL
ANTIGO         NOT AVBL
TOMAHAWK       NOT AVBL
MERRILL        NOT AVBL
$$

WIZ013-073-162000-
NORTHEAST WISCONSIN

CITY           SKY/WX    TMP DP  RH WIND       PRES   REMARKS
IRON MOUNTAIN  SNOW      28  25  88 SE6       30.23F VSB 1/4
MARINETTE      CLOUDY    30  30 100 SE12      30.28F
$$

WIZ017-030-035>037-045-162000-
CENTRAL WISCONSIN

CITY           SKY/WX    TMP DP  RH WIND       PRES   REMARKS
MEDFORD        NOT AVBL
WAUSAU         CLOUDY    34  28  79 SE20G29   30.08F
MOSINEE        MOSUNNY   36  28  75 SE18G28   30.08F
MARSHFIELD     CLOUDY    39  27  62 SE21G28   30.03F
WISC RAPIDS    CLOUDY    42  27  55 SE13G25   30.07F
STEVENS POINT  NOT AVBL
WAUPACA        NOT AVBL
SHAWANO        NOT AVBL
CLINTONVILLE   NOT AVBL
$$

WIZ038-039-048-051-162000-
FOX VALLEY

CITY           SKY/WX    TMP DP  RH WIND       PRES   REMARKS
NWS GREEN BAY  PTSUNNY   39  29  67 SE20G31   30.21F
APPLETON       NOT AVBL
OSHKOSH        PTSUNNY   42  28  57 SE17G28   30.14F
FOND DU LAC    PTSUNNY   44  29  55 SE15      30.15F
$$

WIZ022-050-052-162000-
EAST CENTRAL WISCONSIN

CITY           SKY/WX    TMP DP  RH WIND       PRES   REMARKS
STURGEON BAY   CLOUDY    34  25  69 SE12G20   30.29S
MANITOWOC      NOT AVBL
SHEBOYGAN      PTSUNNY   39  29  67 S16G32    30.24F
$$

LMZ563-521-522-541>543-162000-
LAKESHORE

STATION/POSITION TIME  TEMP    WIND        PRES    VSBY  WAVE
                       AIR SEA DIR/SP/G                  HT/PER
                 (UTC) (F)     (DEG/KT/KT) (MB)    (MI)  (FT/S)
SHEBOYGAN LKSHOR 1800   35     150/ 24/ 26 1025.3F
NORTHPORT PIER   1800   33     160/ 10/ 17 1026.8S
SISTER BAY LKSHO 1800   33     170/  9/ 13   N/A
MENOMINEE LKSHOR 1800   31     110/ 11/ 13 1026.2F
$$



USA.gov is the U.S. government's official web portal to all federal, state and local government web resources and services.